| time (UTC) | temp F | wind direction | speed MPH | gust MPH | rain 1hr in | rain 24hr in | rain mn in | humidity % | barometer mb |
| 20260505093519 | 70 | 200 | 5.0 | 9.0 | 0.00 | 0.11 | 0.00 | 88 | 1005.2 |
| 20260505092538 | 70 | 205 | 6.0 | 12.0 | 0.00 | 0.11 | 0.00 | 88 | 1005.1 |
| 20260505091518 | 70 | 202 | 6.0 | 19.0 | 0.00 | 0.11 | 0.00 | 88 | 1005.1 |
| 20260505090518 | 70 | 203 | 4.0 | 9.0 | 0.00 | 0.11 | 0.00 | 88 | 1005.2 |
| 20260505085519 | 70 | 204 | 6.0 | 11.0 | 0.00 | 0.11 | 0.00 | 88 | 1005.1 |
| 20260505084520 | 70 | 196 | 6.0 | 11.0 | 0.00 | 0.11 | 0.00 | 88 | 1005.1 |
| 20260505083520 | 70 | 204 | 6.0 | 16.0 | 0.00 | 0.11 | 0.00 | 88 | 1005.3 |
| 20260505082520 | 70 | 197 | 5.0 | 9.0 | 0.00 | 0.11 | 0.00 | 88 | 1005.5 |
| 20260505081519 | 70 | 203 | 4.0 | 11.0 | 0.00 | 0.11 | 0.00 | 88 | 1005.5 |
| 20260505080539 | 70 | 206 | 6.0 | 13.0 | 0.00 | 0.11 | 0.00 | 88 | 1005.6 |
| 20260505075519 | 70 | 199 | 4.0 | 8.0 | 0.00 | 0.11 | 0.00 | 88 | 1005.6 |
| 20260505074537 | 70 | 198 | 7.0 | 13.0 | 0.00 | 0.11 | 0.00 | 88 | 1005.7 |
| 20260505073520 | 70 | 201 | 6.0 | 11.0 | 0.00 | 0.11 | 0.00 | 87 | 1005.8 |
| 20260505072519 | 70 | 203 | 5.0 | 11.0 | 0.00 | 0.11 | 0.00 | 87 | 1005.9 |
| 20260505071520 | 70 | 194 | 6.0 | 12.0 | 0.00 | 0.11 | 0.00 | 86 | 1005.9 |
| 20260505070517 | 70 | 194 | 6.0 | 12.0 | 0.00 | 0.11 | 0.00 | 86 | 1006.2 |
| 20260505065517 | 71 | 202 | 6.0 | 16.0 | 0.00 | 0.11 | 0.00 | 86 | 1006.3 |
| 20260505064541 | 71 | 195 | 5.0 | 9.0 | 0.00 | 0.11 | 0.00 | 85 | 1006.4 |
| 20260505063520 | 71 | 190 | 5.0 | 10.0 | 0.00 | 0.11 | 0.00 | 85 | 1006.5 |
| 20260505062517 | 71 | 187 | 7.0 | 14.0 | 0.00 | 0.11 | 0.00 | 84 | 1006.5 |
| 20260505061517 | 71 | 198 | 6.0 | 12.0 | 0.00 | 0.11 | 0.00 | 84 | 1006.6 |
| 20260505060518 | 71 | 183 | 6.0 | 15.0 | 0.00 | 0.11 | 0.00 | 84 | 1006.6 |
| 20260505055538 | 71 | 191 | 7.0 | 14.0 | 0.00 | 0.11 | 0.00 | 83 | 1006.7 |
| 20260505054522 | 72 | 186 | 6.0 | 13.0 | 0.00 | 0.11 | 0.00 | 83 | 1006.9 |
| 20260505053519 | 72 | 184 | 5.0 | 11.0 | 0.00 | 0.11 | 0.00 | 82 | 1006.9 |
| 20260505052518 | 72 | 185 | 5.0 | 14.0 | 0.00 | 0.11 | 0.00 | 82 | 1006.9 |
| 20260505051521 | 72 | 182 | 5.0 | 10.0 | 0.00 | 0.11 | 0.00 | 81 | 1006.8 |
| 20260505050518 | 72 | 191 | 6.0 | 15.0 | 0.00 | 0.11 | 0.00 | 81 | 1006.8 |
| 20260505041521 | 72 | 183 | 6.0 | 12.0 | 0.00 | 0.11 | 0.11 | 79 | 1007.0 |
| 20260505040516 | 72 | 185 | 6.0 | 11.0 | 0.00 | 0.11 | 0.11 | 80 | 1007.0 |
| 20260505035518 | 72 | 186 | 5.0 | 9.0 | 0.00 | 0.11 | 0.11 | 80 | 1007.1 |
| 20260505034524 | 72 | 180 | 5.0 | 9.0 | 0.00 | 0.11 | 0.11 | 80 | 1007.0 |
| 20260505033523 | 71 | 185 | 4.0 | 10.0 | 0.00 | 0.11 | 0.11 | 80 | 1007.1 |
| 20260505032524 | 71 | 174 | 4.0 | 9.0 | 0.00 | 0.11 | 0.11 | 80 | 1007.3 |
| 20260505031523 | 71 | 181 | 4.0 | 7.0 | 0.00 | 0.11 | 0.11 | 79 | 1007.2 |
| 20260505030537 | 72 | 175 | 4.0 | 7.0 | 0.00 | 0.11 | 0.11 | 79 | 1007.1 |
| 20260505025517 | 72 | 179 | 4.0 | 7.0 | 0.00 | 0.11 | 0.11 | 78 | 1006.9 |
| 20260505024517 | 72 | 182 | 4.0 | 9.0 | 0.00 | 0.11 | 0.11 | 78 | 1007.0 |
| 20260505023518 | 72 | 177 | 3.0 | 7.0 | 0.00 | 0.11 | 0.11 | 78 | 1006.7 |
| 20260505022538 | 72 | 178 | 4.0 | 7.0 | 0.00 | 0.11 | 0.11 | 77 | 1006.8 |
| 20260505021539 | 73 | 177 | 4.0 | 9.0 | 0.00 | 0.11 | 0.11 | 76 | 1006.9 |
| 20260505020519 | 73 | 181 | 4.0 | 7.0 | 0.00 | 0.11 | 0.11 | 76 | 1006.9 |
| 20260505015519 | 73 | 177 | 3.0 | 7.0 | 0.00 | 0.11 | 0.11 | 75 | 1006.8 |
| 20260505014518 | 74 | 176 | 4.0 | 7.0 | 0.00 | 0.11 | 0.11 | 74 | 1006.8 |
| 20260505013517 | 74 | 180 | 4.0 | 8.0 | 0.00 | 0.11 | 0.11 | 73 | 1006.9 |
| 20260505012519 | 74 | 178 | 4.0 | 7.0 | 0.00 | 0.11 | 0.11 | 73 | 1006.8 |
| 20260505011519 | 75 | 182 | 4.0 | 7.0 | 0.00 | 0.11 | 0.11 | 72 | 1006.8 |
| 20260505010517 | 75 | 176 | 4.0 | 10.0 | 0.00 | 0.11 | 0.11 | 71 | 1006.6 |
| 20260505005517 | 75 | 188 | 5.0 | 10.0 | 0.00 | 0.11 | 0.11 | 71 | 1006.7 |
| 20260505004518 | 76 | 180 | 4.0 | 8.0 | 0.00 | 0.11 | 0.11 | 70 | 1006.8 |
| 20260505003521 | 76 | 184 | 4.0 | 8.0 | 0.00 | 0.11 | 0.11 | 70 | 1006.8 |
| 20260505002540 | 77 | 174 | 4.0 | 6.0 | 0.00 | 0.11 | 0.11 | 69 | 1006.9 |
| 20260505001518 | 77 | 180 | 5.0 | 11.0 | 0.00 | 0.11 | 0.11 | 68 | 1006.8 |
| 20260505000517 | 77 | 178 | 5.0 | 10.0 | 0.01 | 0.11 | 0.11 | 68 | 1006.8 |
| 20260504235517 | 78 | 187 | 5.0 | 10.0 | 0.01 | 0.11 | 0.11 | 67 | 1006.8 |
| 20260504234518 | 78 | 180 | 7.0 | 17.0 | 0.01 | 0.11 | 0.11 | 66 | 1006.8 |
| 20260504233539 | 79 | 177 | 6.0 | 12.0 | 0.04 | 0.11 | 0.11 | 65 | 1007.0 |
| 20260504232518 | 80 | 192 | 5.0 | 13.0 | 0.05 | 0.11 | 0.11 | 63 | 1007.1 |
| 20260504231518 | 80 | 180 | 6.0 | 13.0 | 0.04 | 0.10 | 0.10 | 63 | 1007.3 |
| 20260504230518 | 80 | 180 | 5.0 | 11.0 | 0.04 | 0.10 | 0.10 | 63 | 1007.3 |
| 20260504225518 | 79 | 179 | 7.0 | 13.0 | 0.04 | 0.10 | 0.10 | 62 | 1007.3 |
| 20260504224519 | 80 | 179 | 7.0 | 14.0 | 0.04 | 0.10 | 0.10 | 61 | 1007.4 |
| 20260504223519 | 80 | 185 | 7.0 | 17.0 | 0.00 | 0.06 | 0.06 | 61 | 1007.4 |
| 20260504222540 | 80 | 184 | 7.0 | 14.0 | 0.00 | 0.06 | 0.06 | 60 | 1007.5 |
| 20260504221519 | 80 | 183 | 7.0 | 14.0 | 0.00 | 0.06 | 0.06 | 60 | 1007.6 |
| 20260504220540 | 80 | 187 | 7.0 | 13.0 | 0.00 | 0.06 | 0.06 | 60 | 1007.7 |
| 20260504215539 | 80 | 182 | 6.0 | 13.0 | 0.00 | 0.06 | 0.06 | 61 | 1007.7 |
| 20260504214517 | 80 | 172 | 7.0 | 12.0 | 0.00 | 0.06 | 0.06 | 60 | 1007.9 |
| 20260504213520 | 80 | 191 | 6.0 | 10.0 | 0.00 | 0.06 | 0.06 | 60 | 1007.9 |
| 20260504212521 | 80 | 190 | 6.0 | 11.0 | 0.00 | 0.06 | 0.06 | 60 | 1008.1 |
| 20260504211520 | 80 | 181 | 7.0 | 16.0 | 0.00 | 0.06 | 0.06 | 59 | 1008.4 |
| 20260504210517 | 80 | 177 | 7.0 | 14.0 | 0.00 | 0.06 | 0.06 | 58 | 1008.6 |
| 20260504205517 | 80 | 179 | 6.0 | 10.0 | 0.00 | 0.06 | 0.06 | 59 | 1008.8 |
| 20260504204518 | 80 | 201 | 6.0 | 10.0 | 0.00 | 0.06 | 0.06 | 58 | 1009.1 |
| 20260504203521 | 80 | 189 | 7.0 | 15.0 | 0.00 | 0.06 | 0.06 | 57 | 1009.3 |
| 20260504202518 | 80 | 189 | 5.0 | 13.0 | 0.00 | 0.06 | 0.06 | 57 | 1009.5 |
| 20260504201538 | 80 | 178 | 7.0 | 14.0 | 0.00 | 0.06 | 0.06 | 57 | 1009.6 |
| 20260504200518 | 80 | 193 | 6.0 | 11.0 | 0.00 | 0.06 | 0.06 | 56 | 1009.8 |
| 20260504195518 | 79 | 181 | 7.0 | 11.0 | 0.00 | 0.06 | 0.06 | 57 | 1009.9 |
| 20260504194519 | 79 | 190 | 7.0 | 14.0 | 0.00 | 0.06 | 0.06 | 55 | 1010.2 |
| 20260504193519 | 79 | 198 | 5.0 | 10.0 | 0.00 | 0.06 | 0.06 | 57 | 1010.4 |
| 20260504192520 | 79 | 190 | 6.0 | 12.0 | 0.00 | 0.06 | 0.06 | 55 | 1010.4 |
| 20260504191519 | 79 | 192 | 6.0 | 13.0 | 0.00 | 0.06 | 0.06 | 55 | 1010.6 |
| 20260504190539 | 78 | 196 | 6.0 | 12.0 | 0.00 | 0.06 | 0.06 | 56 | 1010.7 |
| 20260504185519 | 78 | 203 | 6.0 | 14.0 | 0.01 | 0.06 | 0.06 | 56 | 1010.7 |
| 20260504184516 | 78 | 213 | 5.0 | 12.0 | 0.01 | 0.06 | 0.06 | 56 | 1011.0 |
| 20260504183520 | 78 | 182 | 7.0 | 13.0 | 0.01 | 0.06 | 0.06 | 56 | 1011.0 |
| 20260504182540 | 77 | 197 | 5.0 | 10.0 | 0.02 | 0.06 | 0.06 | 58 | 1011.0 |
| 20260504181519 | 77 | 175 | 6.0 | 14.0 | 0.02 | 0.06 | 0.06 | 58 | 1011.3 |
| 20260504180521 | 77 | 177 | 7.0 | 13.0 | 0.01 | 0.06 | 0.06 | 58 | 1011.4 |
| 20260504175518 | 76 | 181 | 7.0 | 14.0 | 0.02 | 0.05 | 0.05 | 57 | 1011.6 |
| 20260504174538 | 76 | 208 | 6.0 | 12.0 | 0.01 | 0.05 | 0.05 | 57 | 1011.8 |
| 20260504173520 | 76 | 200 | 6.0 | 13.0 | 0.02 | 0.05 | 0.05 | 58 | 1012.0 |
| 20260504172521 | 76 | 203 | 7.0 | 16.0 | 0.02 | 0.04 | 0.04 | 57 | 1012.2 |
| 20260504171518 | 76 | 201 | 4.0 | 11.0 | 0.03 | 0.04 | 0.04 | 60 | 1012.5 |
| 20260504170538 | 75 | 202 | 5.0 | 13.0 | 0.03 | 0.04 | 0.04 | 59 | 1012.6 |
| 20260504150521 | 69 | 197 | 8.0 | 18.0 | 0.00 | 0.00 | 0.00 | 66 | 1013.7 |
| 20260504140538 | 67 | 216 | 5.0 | 11.0 | 0.00 | 0.00 | 0.00 | 72 | 1013.9 |
| 20260504130518 | 62 | 155 | 2.0 | 6.0 | 0.00 | 0.00 | 0.00 | 83 | 1013.9 |
| 20260504110518 | 58 | 0.0 | 0.0 | 0.00 | 0.00 | 0.00 | 85 | 1013.6 | |
| 20260504100518 | 59 | 154 | 0.0 | 2.0 | 0.00 | 0.00 | 0.00 | 83 | 1013.5 |